Skip Page Navigation
NASA JPL Caltech
NASA Logo - Jet Propulsion Laboratory + View the NASA Portal
+ Center for Near-Earth Object Studies
JPL Home Earth Solar System Stars & Galaxies Technology
JPL Solar System Dynamics
BODIES ORBITS EPHEMERIDES TOOLS PHYSICAL DATA DISCOVERY FAQ SITE MAP
IMPORTANT: The SSD Announcement email list is now available. Major changes are coming in the near future, including possible hostname and/or URL changes. To be notified of such changes, subscribe to this email list.

Please visit this page for more details.


JPL Small-Body Database Browser
Search: [ help ]  
52761 (1998 MN14)
Classification: Amor [NEO]          SPK-ID: 2052761
Ephemeris | Orbit Diagram | Orbital Elements | Mission Design | Physical Parameters | Discovery Circumstances | Close-Approach Data ]

[ show orbit diagram ]
Orbital Elements at Epoch 2459000.5 (2020-May-31.0) TDB
Reference: JPL 61 (heliocentric ecliptic J2000)
 Element Value Uncertainty (1-sigma)   Units 
e .2242158549035919 2.0161e-07  
a 1.554557751195138 2.2847e-08 au
q 1.206001256013915 3.2871e-07 au
i 19.48292630097441 1.2875e-05 deg
node 258.9976914606476 1.6978e-05 deg
peri 350.426329447348 7.3669e-05 deg
M 127.9421150901778 0.00012551 deg
tp 2458748.894724459397
(2019-Sep-22.39472446)
0.00024131 TDB
period 707.9599952742273
1.94
1.5607e-05
4.273e-08
d
yr
n .5085033086658443 1.121e-08 deg/d
Q 1.903114246376361 2.7969e-08 au
  Orbit Determination Parameters
   # obs. used (total)      333  
   data-arc span      7529 days (20.61 yr)  
   first obs. used      1998-06-25  
   last obs. used      2019-02-04  
   planetary ephem.      DE431  
   SB-pert. ephem.      SB431-N16  
   condition code      0  
   norm. resid. RMS      .58133  
   source      ORB  
   producer      Otto Matic  
   solution date      2019-Feb-05 08:25:29  

Additional Information
 Earth MOID = .193416 au 
 Jupiter MOID = 3.15409 au 
 T_jup = 4.352 
[ show covariance matrix ]

Ephemeris | Orbit Diagram | Orbital Elements | Mission Design | Physical Parameters | Discovery Circumstances | Close-Approach Data ]

Physical Parameter Table
Parameter Symbol Value Units Sigma Reference Notes
absolute magnitude H 17.8   n/a MPO468407  

52761 (1998 MN14)          Discovered 1998-Jun-25 by LINEAR at Socorro
Reference: 20030216/Numbers.arcLast Updated: 2004-04-19

[ show close-approach data ]
Ephemeris | Orbit Diagram | Orbital Elements | Mission Design | Physical Parameters | Discovery Circumstances | Close-Approach Data ]
ABOUT SSD CREDITS/AWARDS PRIVACY/COPYRIGHT GLOSSARY LINKS
FirstGov 2020-Mar-31 23:16 UT
(server date/time)  
NASA Home Page
Site Manager:   Ryan S. Park
Webmaster  Alan B. Chamberlin